Zurück zum Katalog

COSMOS 952 DEB

AktivLEO
NORAD 44567·DEBRIS·🇷🇺 Russia

Gestartet Sep 16, 1977 von Baikonur Cosmodrome

Loading…

Nächste Überflüge (nächste 24 Stunden)

TLE

AlterndSource: Space-Track

Epoche: Sep 8, 2026, 07:35 UTC

1 44567U 77088D   26251.31624589  .00000087  00000-0  15249-3 0  9999
2 44567  64.9331 257.4808 0050708 335.1553  38.4827 13.85715526647173

Verfolge COSMOS 952 DEB in Echtzeit mit AllMySat

Download on the App Store